Wetterdaten: aktuell Dienstag, 18.02.2020 21:01
Datum Zeit Temp. A. Feuchte A. Luftdruck Regen Wind Richtung Richtung Sonnenschein Regendauer Taupunkt Windchill
18.02.2020 21:01 2,3 C 93 % 1026,7 hPa 0,0 mm 0,0 km/h (0 Bft) N 10 0 min 0 min 1,3 C 2,3 C
18.02.2020 20:56 2,4 C 93 % 1026,6 hPa 0,0 mm 0,0 km/h (0 Bft) S 170 0 min 0 min 1,4 C 2,4 C
18.02.2020 20:51 2,2 C 93 % 1025,6 hPa 0,0 mm 0,0 km/h (0 Bft) O-SO 120 0 min 0 min 1,2 C 2,2 C
18.02.2020 20:46 2,2 C 92 % 1025,6 hPa 0,0 mm 0,0 km/h (0 Bft) O-SO 110 0 min 0 min 1,0 C 2,2 C
18.02.2020 20:41 2,2 C 92 % 1025,6 hPa 0,0 mm 0,0 km/h (0 Bft) W-NW 295 0 min 0 min 1,0 C 2,2 C
18.02.2020 20:36 2,2 C 92 % 1026,7 hPa 0,0 mm 0,0 km/h (0 Bft) O-NO 60 0 min 0 min 1,0 C 2,2 C
18.02.2020 20:31 2,3 C 91 % 1026,7 hPa 0,0 mm 0,0 km/h (0 Bft) S 180 0 min 0 min 1,0 C 2,3 C
18.02.2020 20:26 2,4 C 91 % 1026,6 hPa 0,0 mm 0,0 km/h (0 Bft) S 180 0 min 0 min 1,1 C 2,4 C
18.02.2020 20:21 2,5 C 91 % 1026,6 hPa 0,0 mm 0,0 km/h (0 Bft) S 180 0 min 0 min 1,2 C 2,5 C
18.02.2020 20:16 2,6 C 91 % 1026,6 hPa 0,0 mm 0,0 km/h (0 Bft) S 180 0 min 0 min 1,3 C 2,6 C
18.02.2020 20:11 2,6 C 90 % 1026,6 hPa 0,0 mm 0,0 km/h (0 Bft) W 280 0 min 0 min 1,1 C 2,6 C
18.02.2020 20:06 2,7 C 90 % 1025,5 hPa 0,0 mm 0,0 km/h (0 Bft) NW 315 0 min 0 min 1,2 C 2,7 C
18.02.2020 20:01 2,9 C 90 % 1025,5 hPa 0,0 mm 0,0 km/h (0 Bft) S 190 0 min 0 min 1,4 C 2,9 C
18.02.2020 19:56 3,1 C 87 % 1025,4 hPa 0,0 mm 0,0 km/h (0 Bft) S-SO 155 0 min 0 min 1,2 C 3,1 C
18.02.2020 19:51 3,3 C 86 % 1026,4 hPa 0,0 mm 0,0 km/h (0 Bft) NW 305 0 min 0 min 1,2 C 3,3 C
18.02.2020 19:46 3,3 C 86 % 1026,4 hPa 0,0 mm 0,0 km/h (0 Bft) W-SW 255 0 min 0 min 1,2 C 3,3 C
18.02.2020 19:41 3,5 C 85 % 1026,4 hPa 0,0 mm 0,0 km/h (0 Bft) NW 305 0 min 0 min 1,2 C 3,5 C
18.02.2020 19:36 3,8 C 85 % 1026,3 hPa 0,0 mm 0,0 km/h (0 Bft) SW 215 0 min 0 min 1,5 C 3,8 C
18.02.2020 19:31 4,0 C 84 % 1026,3 hPa 0,0 mm 0,0 km/h (0 Bft) W-SW 250 0 min 0 min 1,5 C 4,0 C
18.02.2020 19:26 4,2 C 84 % 1026,3 hPa 0,0 mm 0,3 km/h (0 Bft) SO 125 0 min 0 min 1,7 C 4,2 C
18.02.2020 19:21 4,0 C 85 % 1026,3 hPa 0,0 mm 0,0 km/h (0 Bft) W-SW 250 0 min 0 min 1,7 C 4,0 C
18.02.2020 19:16 4,2 C 84 % 1026,3 hPa 0,0 mm 0,0 km/h (0 Bft) NO 45 0 min 0 min 1,7 C 4,2 C
18.02.2020 19:11 4,4 C 84 % 1026,2 hPa 0,0 mm 4,2 km/h (1 Bft) SW 215 0 min 0 min 1,9 C 4,4 C
18.02.2020 19:06 4,4 C 84 % 1026,2 hPa 0,0 mm 3,6 km/h (1 Bft) SW 225 0 min 0 min 1,9 C 4,4 C
18.02.2020 19:01 4,4 C 84 % 1026,2 hPa 0,0 mm 2,1 km/h (1 Bft) W-SW 245 0 min 0 min 1,9 C 4,4 C
18.02.2020 18:56 4,6 C 84 % 1026,2 hPa 0,0 mm 0,6 km/h (0 Bft) S 170 0 min 0 min 2,1 C 4,6 C
18.02.2020 18:51 4,7 C 83 % 1027,2 hPa 0,0 mm 2,4 km/h (1 Bft) S-SW 195 0 min 0 min 2,1 C 4,7 C
18.02.2020 18:46 4,7 C 83 % 1027,2 hPa 0,0 mm 1,8 km/h (1 Bft) SW 230 0 min 0 min 2,1 C 4,7 C
18.02.2020 18:41 4,5 C 84 % 1027,3 hPa 0,0 mm 0,0 km/h (0 Bft) W 280 0 min 0 min 2,0 C 4,5 C
18.02.2020 18:36 4,7 C 84 % 1025,1 hPa 0,0 mm 0,0 km/h (0 Bft) NW 315 0 min 0 min 2,2 C 4,7 C
18.02.2020 18:31 4,5 C 84 % 1025,1 hPa 0,0 mm 3,0 km/h (1 Bft) W-NW 290 0 min 0 min 2,0 C 4,5 C
18.02.2020 18:26 5,1 C 82 % 1025,0 hPa 0,0 mm 5,4 km/h (2 Bft) W-NW 295 0 min 0 min 2,3 C 4,0 C
18.02.2020 18:21 5,1 C 83 % 1026,1 hPa 0,0 mm 0,0 km/h (0 Bft) W-NW 290 0 min 0 min 2,5 C 5,1 C
18.02.2020 18:16 5,0 C 84 % 1026,1 hPa 0,0 mm 2,4 km/h (1 Bft) NW 310 0 min 0 min 2,5 C 5,0 C
18.02.2020 18:11 4,9 C 84 % 1026,1 hPa 0,0 mm 0,0 km/h (0 Bft) W-NW 285 0 min 0 min 2,4 C 4,9 C
18.02.2020 18:06 5,2 C 83 % 1026,1 hPa 0,0 mm 0,0 km/h (0 Bft) NW 320 0 min 0 min 2,6 C 5,2 C
18.02.2020 18:01 5,4 C 83 % 1026,0 hPa 0,0 mm 2,1 km/h (1 Bft) W-NW 285 0 min 0 min 2,7 C 5,4 C
18.02.2020 17:56 5,7 C 83 % 1026,0 hPa 0,0 mm 5,4 km/h (2 Bft) SO 135 0 min 0 min 3,0 C 4,7 C
18.02.2020 17:51 5,7 C 83 % 1024,9 hPa 0,0 mm 10,6 km/h (2 Bft) SO 130 0 min 0 min 3,0 C 3,4 C
18.02.2020 17:46 5,7 C 82 % 1024,9 hPa 0,0 mm 6,7 km/h (2 Bft) S-SO 150 0 min 0 min 2,9 C 4,3 C
18.02.2020 17:41 5,8 C 82 % 1024,9 hPa 0,0 mm 4,2 km/h (1 Bft) W 270 0 min 0 min 3,0 C 5,8 C
18.02.2020 17:36 5,8 C 82 % 1025,9 hPa 0,0 mm 7,3 km/h (2 Bft) W 260 0 min 0 min 3,0 C 4,3 C
18.02.2020 17:31 6,1 C 80 % 1025,9 hPa 0,0 mm 4,8 km/h (1 Bft) S 185 0 min 0 min 2,9 C 5,4 C
18.02.2020 17:26 6,2 C 78 % 1025,8 hPa 0,0 mm 6,4 km/h (2 Bft) S-SO 150 0 min 0 min 2,7 C 5,0 C
18.02.2020 17:21 6,3 C 78 % 1024,8 hPa 0,0 mm 3,3 km/h (1 Bft) S-SO 150 0 min 0 min 2,8 C 6,3 C
18.02.2020 17:16 6,4 C 78 % 1024,8 hPa 0,0 mm 0,0 km/h (0 Bft) NO 55 0 min 0 min 2,8 C 6,4 C
18.02.2020 17:11 6,3 C 78 % 1024,8 hPa 0,0 mm 6,7 km/h (2 Bft) SO 140 0 min 0 min 2,8 C 5,0 C
18.02.2020 17:06 6,3 C 79 % 1025,8 hPa 0,0 mm 1,8 km/h (1 Bft) W-SW 240 0 min 0 min 2,9 C 6,3 C
18.02.2020 17:01 6,4 C 78 % 1025,8 hPa 0,0 mm 4,8 km/h (1 Bft) W-SW 250 0 min 0 min 2,8 C 5,7 C
_ Min-Zeit 20:36 16:31 22:20 - 22:10 - - - - 20:31 09:46
Minimum _ 2,2 C 74 % 1020,4 hPa - 0,0 km/h (0 Bft) - - - - 1,0 C 0,4 C
_ Max-Zeit 15:16 02:05 08:41 22:25 09:46 - - 15:16 05:46 22:25 22:20
Maximum _ 7,6 C 97 % 1027,3 hPa 0,5 mm 23,6 km/h
SO (4 Bft)
- - 6 min 6 min 6,6 C 7,2 C
Durchschnitt _ 5,7 C 89 % 1024,6 hPa #6,5 mm 6,2 km/h (2 Bft) SO - #31 min. #4:01 h 4,0 C 4,6 C